OneWeb SL0115

operational
NORAD ID: 48042 Int'l Des: 2021-025 Owner: ONEWEBN Country: UK Constellation: oneweb
LEOCIRCULARPOLARONEWEB_TYPE

Über OneWeb SL0115

Beschreibung wird geladen...

Live-Position

3D-Globus wird geladen...

Nächste Überflüge

Höhenverlauf

Altitude vs Time

uPlot chart will show altitude changes over time

Zweizeiliger Elementsatz

1 48042U 21025A 26095.12139532 .00000326 00000-0 85915-3 0 9998
2 48042 87.9008 334.7679 0001740 83.4449 276.6878 13.13468903244007
Epoch: 5. Apr. 2026 • Age: 13 hours

Aktueller Status

Höhe 1223.3 km
Geschwindigkeit 7.24 km/s
Subsatellitenpunkt -34.39°S, 93.77°W
Startdatum 25. März 2021
Alter 5 years
Typ internet

Technische Details

Klassifizierung Payload
Masse 148.00 kg
Trockenmasse 140.00 kg
Gesamtmasse 148.00 kg
Länge 1.30 m
Durchmesser 1.00 m
Spannweite 5.00 m
Form Trapezoid+2 pan
Hersteller ONEWUS
Bus-Typ ARROW
Phasenstatus In Orbit
Besitzer/Staat ONEWEBN/UK

Große Konstellationen

Loading constellations...